ジョンソン彗星

48P/Johnson (1997)

English version
Home page
Total 6,336 html files since Dec. 4, 1995
Updated on March 26, 1999

---------------------------------------------------------------------

・ プロフィール

・ 軌道要素

   The following improved orbital elements by Kenji Muraoka, 
  are from 234 observation1 1949 to 1999, including 9 Planets, 
  Moon and 5 minor planets perturbations and non-gravitational 
  effect of style II.  The mean residual is +/- 0.81 arc seconds.

      Epoch  =  1997 Nov.  8.0  TT       JDT = 2450760.5
          T  =  1997 Oct. 31.84877       +/- 0.00072 (m.e.) TT
       Peri. =  207.99089                +/- 0.00025
       Node  =  117.35386                +/- 0.00005   (2000.0)
       Incl. =   13.66435                +/- 0.00002
          q  =    2.3083073              +/- 0.0000010 AU
          e  =    0.3672592              +/- 0.0000003
          a  =    3.6481085              +/- 0.0000006 AU
          n  =    0.14144984             +/- 0.00000004
          P  =    6.968                  +/- 0.0000018  years
         A1  =   +0.711                  +/- 0.021
         A2  =   -0.02396                +/- 0.00069

・ 星図

・ 1997年 2月 1日〜1998年12月13日

・ 光度変化

        m1 = 9.0 + 5 logΔ + 15.0 log r

---------------------------------------------------------------------

軌道要素は村岡健治氏の計算によるものです。
星図は StellaNavigator Ver.2.0 for Windows (アストロアーツ 編著 / アスキー出版局刊) で作成したものです。
光度グラフはComet for Windowsで作成したものです。

---------------------------------------------------------------------

Copyright(C) 1995-2008 Seiichi Yoshida (comet@aerith.net). All rights reserved.